User: anonymous   Login
Location: Vancouver
(49.2827°N, 123.1207°W)
Time: 02:08:41
(UTC-07:00)
Language:

ISS - Orbit

View from above orbital plane
View from above orbital plane
View from above satellite
View from above satellite

Ground track
Ground track

The orbit data is extracted from the following two-line orbital elements,

1 25544U 98067A   20094.58073311  .00016717  00000-0  10270-3 0  9055
2 25544  51.6456 357.6461 0003687  78.3704 281.7860 15.48691144 20449
Epoch (UTC): 03 April 2020 13:56:15
Eccentricity: 0.0003687
inclination: 51.6456°
perigee height: 418 km
apogee height: 423 km
right ascension of ascending node: 357.6461°
argument of perigee: 78.3704°
revolutions per day: 15.48691144
mean anomaly at epoch: 281.7860°
orbit number at epoch: 2044

The dashed part of the orbit path shows where the satellite is in the earth's shadow,  

DLR